User: anonymous   Login
Location: Berg
(47.2344°N, 9.5296°E)
Time: 12:32:27
(UTC+00:00)
Language:

DIWATA 2B (PO-101) - Orbit

View from above orbital plane
View from above orbital plane
View from above satellite
View from above satellite

Ground track
Ground track

The orbit data is extracted from the following two-line orbital elements,

1 43678U 18084H   21340.09769621 -.00000079  00000-0 -20029-5 0  9995
2 43678  97.9457 106.5036 0009263 196.8510 163.2394 14.91842116169025
Epoch (UTC): 06 December 2021 02:20:40
Eccentricity: 0.0009263
inclination: 97.9457°
perigee height: 586 km
apogee height: 598 km
right ascension of ascending node: 106.5036°
argument of perigee: 196.8510°
revolutions per day: 14.91842116
mean anomaly at epoch: 163.2394°
orbit number at epoch: 16902

The dashed part of the orbit path shows where the satellite is in the earth's shadow,  

DLR